Location: Oberwangen
(47.4286°N, 8.9679°E)
Time: 08:30:17
(UTC+00:00)

Meteor 1-4 Rocket - Pass Details

Date: 20 June 2021
Orbit: 447 x 499 km, 81.2° (Epoch: 04 August)

Event Time Altitude Azimuth Distance (km) Brightness Sun altitude
Rises 23:21:21 0° 340° (NNW) 2,481 7.5 -19.1°
Reaches altitude 10° 23:23:33 10° 331° (NNW) 1,596 6.1 -19.1°
Maximum altitude 23:26:42 33° 266° (W) 778 3.5 -19.1°
Enters shadow 23:27:01 32° 254° (WSW) 789 3.4 -19.1°
